• In Latvia
  • List of Countries
  • For 7 days
  • Water Temperature
  • Satellite Maps
  • Weather Map
  • Weather Widgets
  • user-avatar
    Login

    Hourly Weather Reading

    Today, 22 September, Saturday

    Time Temperature Precipitation Wind Pressure Humidity
    00:00 +10°C° 0 mm 3 mps 760 mmHg 84%
    01:00 +10°C° 0 mm 3 mps 760 mmHg 83%
    02:00 +10°C° 0 mm 4 mps 760 mmHg 82%
    03:00 +11°C° 0 mm 4 mps 760 mmHg 81%
    04:00 +11°C° 0.1 mm 4 mps 760 mmHg 81%
    05:00 +11°C° 0.1 mm 4 mps 760 mmHg 81%
    06:00 +11°C° 0.1 mm 4 mps 760 mmHg 81%
    07:00 +11°C° 0.1 mm 4 mps 760 mmHg 80%
    08:00 +12°C° 0.1 mm 4 mps 760 mmHg 78%
    09:00 +12°C° 0.1 mm 4 mps 761 mmHg 77%
    10:00 +12°C° 0.3 mm 3 mps 760 mmHg 77%
    11:00 +12°C° 0.3 mm 3 mps 760 mmHg 78%
    12:00 +12°C° 0.3 mm 3 mps 760 mmHg 78%
    13:00 +13°C° 0.7 mm 2 mps 760 mmHg 81%
    14:00 +12°C° 0.7 mm 2 mps 759 mmHg 84%
    15:00 +12°C° 0.7 mm 2 mps 758 mmHg 88%
    16:00 +11°C° 0.6 mm 3 mps 758 mmHg 89%
    17:00 +11°C° 0.6 mm 3 mps 757 mmHg 90%
    18:00 +11°C° 0.6 mm 4 mps 756 mmHg 92%
    19:00 +11°C° 0.3 mm 4 mps 756 mmHg 92%
    20:00 +11°C° 0.3 mm 4 mps 756 mmHg 91%
    21:00 +11°C° 0.3 mm 4 mps 756 mmHg 91%
    22:00 +11°C° 0.1 mm 4 mps 756 mmHg 91%
    23:00 +11°C° 0.1 mm 4 mps 756 mmHg 92%

    Tomorrow, 23 September, Sunday

    Time Temperature Precipitation Wind Pressure Humidity
    00:00 +11°C° 0.1 mm 3 mps 756 mmHg 92%
    01:00 +11°C° 0.1 mm 3 mps 756 mmHg 91%
    02:00 +11°C° 0.1 mm 3 mps 756 mmHg 91%
    03:00 +11°C° 0.1 mm 3 mps 757 mmHg 91%
    04:00 +10°C° 0.2 mm 3 mps 756 mmHg 91%
    05:00 +10°C° 0.2 mm 4 mps 756 mmHg 90%
    06:00 +10°C° 0.2 mm 4 mps 756 mmHg 90%
    07:00 +9°C° 3.2 mm 5 mps 756 mmHg 91%
    08:00 +8°C° 3.2 mm 5 mps 757 mmHg 91%
    09:00 +8°C° 3.2 mm 6 mps 757 mmHg 92%
    10:00 +8°C° 1.7 mm 6 mps 758 mmHg 90%
    11:00 +8°C° 1.7 mm 6 mps 759 mmHg 87%
    12:00 +8°C° 1.7 mm 6 mps 759 mmHg 85%
    13:00 +9°C° 0.1 mm 6 mps 760 mmHg 77%
    14:00 +10°C° 0.1 mm 6 mps 761 mmHg 69%
    15:00 +11°C° 0.1 mm 6 mps 762 mmHg 60%
    16:00 +10°C° 0 mm 5 mps 763 mmHg 64%
    17:00 +10°C° 0 mm 4 mps 764 mmHg 67%
    18:00 +10°C° 0 mm 3 mps 765 mmHg 70%
    19:00 +9°C° 0 mm 3 mps 766 mmHg 73%
    20:00 +8°C° 0 mm 3 mps 767 mmHg 76%
    21:00 +8°C° 0 mm 3 mps 768 mmHg 79%
    22:00 +7°C° 0 mm 3 mps 769 mmHg 81%
    23:00 +7°C° 0 mm 3 mps 769 mmHg 83%

    Day after tomorrow, 24 September, Monday

    Time Temperature Precipitation Wind Pressure Humidity
    00:00 +7°C° 0 mm 2 mps 770 mmHg 86%
    01:00 +6°C° 0 mm 2 mps 770 mmHg 87%
    02:00 +6°C° 0 mm 2 mps 771 mmHg 88%
    03:00 +6°C° 0 mm 2 mps 772 mmHg 89%
    04:00 +6°C° 0 mm 2 mps 772 mmHg 90%
    05:00 +6°C° 0 mm 2 mps 772 mmHg 91%
    06:00 +5°C° 0 mm 2 mps 773 mmHg 91%
    07:00 +7°C° 0 mm 2 mps 773 mmHg 84%
    08:00 +9°C° 0 mm 3 mps 774 mmHg 77%
    09:00 +11°C° 0 mm 3 mps 774 mmHg 70%
    10:00 +12°C° 0 mm 3 mps 774 mmHg 63%
    11:00 +13°C° 0 mm 3 mps 775 mmHg 56%
    12:00 +14°C° 0 mm 3 mps 775 mmHg 50%
    13:00 +14°C° 0 mm 3 mps 775 mmHg 48%
    14:00 +14°C° 0 mm 3 mps 775 mmHg 46%
    15:00 +14°C° 0 mm 3 mps 774 mmHg 44%
    16:00 +13°C° 0 mm 3 mps 774 mmHg 48%
    17:00 +13°C° 0 mm 2 mps 774 mmHg 52%
    18:00 +10°C° 0 mm 2 mps 774 mmHg 57%
    19:00 +10°C° 0 mm 2 mps 775 mmHg 58%
    20:00 +9°C° 0 mm 2 mps 775 mmHg 58%
    21:00 +8°C° 0 mm 2 mps 776 mmHg 59%
    22:00 +9°C° 0 mm 1 mps 776 mmHg 60%
    23:00 +9°C° 0 mm 1 mps 776 mmHg 61%

    25 September, Tuesday

    Time Temperature Precipitation Wind Pressure Humidity
    00:00 +8°C° 0 mm 1 mps 776 mmHg 62%
    01:00 +8°C° 0 mm 1 mps 775 mmHg 63%
    02:00 +8°C° 0 mm 1 mps 775 mmHg 64%
    03:00 +8°C° 0 mm 1 mps 775 mmHg 65%
    04:00 +7°C° 0 mm 1 mps 775 mmHg 65%
    05:00 +7°C° 0 mm 1 mps 775 mmHg 66%
    06:00 +7°C° 0 mm 1 mps 775 mmHg 66%
    07:00 +9°C° 0 mm 1 mps 775 mmHg 63%
    08:00 +10°C° 0 mm 2 mps 775 mmHg 59%
    09:00 +13°C° 0 mm 2 mps 775 mmHg 56%
    10:00 +14°C° 0 mm 2 mps 775 mmHg 54%
    11:00 +15°C° 0 mm 2 mps 775 mmHg 52%
    12:00 +16°C° 0 mm 3 mps 774 mmHg 50%
    13:00 +16°C° 0 mm 3 mps 774 mmHg 49%
    14:00 +17°C° 0 mm 3 mps 773 mmHg 49%
    15:00 +17°C° 0 mm 2 mps 773 mmHg 49%
    16:00 +15°C° 0 mm 2 mps 773 mmHg 55%
    17:00 +14°C° 0 mm 2 mps 772 mmHg 61%
    18:00 +13°C° 0 mm 2 mps 772 mmHg 66%
    19:00 +12°C° 0 mm 2 mps 772 mmHg 69%
    20:00 +10°C° 0 mm 2 mps 772 mmHg 71%
    21:00 +9°C° 0 mm 2 mps 772 mmHg 74%
    22:00 +9°C° 0 mm 2 mps 772 mmHg 75%
    23:00 +10°C° 0 mm 1 mps 772 mmHg 76%

    26 September, Wednesday

    Time Temperature Precipitation Wind Pressure Humidity
    00:00 +9°C° 0 mm 1 mps 771 mmHg 78%
    01:00 +9°C° 0 mm 1 mps 771 mmHg 78%
    02:00 +9°C° 0 mm 1 mps 771 mmHg 79%
    03:00 +9°C° 0 mm 1 mps 770 mmHg 80%
    04:00 +9°C° 0 mm 1 mps 770 mmHg 80%
    05:00 +9°C° 0 mm 1 mps 770 mmHg 81%
    06:00 +8°C° 0 mm 1 mps 770 mmHg 82%
    07:00 +10°C° 0 mm 1 mps 770 mmHg 76%
    08:00 +12°C° 0 mm 2 mps 770 mmHg 70%
    09:00 +14°C° 0 mm 2 mps 770 mmHg 64%
    10:00 +16°C° 0 mm 2 mps 770 mmHg 58%
    11:00 +17°C° 0 mm 2 mps 769 mmHg 53%
    12:00 +19°C° 0 mm 3 mps 769 mmHg 48%
    13:00 +19°C° 0 mm 3 mps 769 mmHg 47%
    14:00 +19°C° 0 mm 3 mps 769 mmHg 47%
    15:00 +20°C° 0 mm 3 mps 768 mmHg 47%
    16:00 +18°C° 0 mm 3 mps 768 mmHg 53%
    17:00 +16°C° 0 mm 3 mps 768 mmHg 60%
    18:00 +15°C° 0 mm 2 mps 768 mmHg 66%
    19:00 +14°C° 0 mm 2 mps 768 mmHg 70%
    20:00 +13°C° 0 mm 2 mps 768 mmHg 73%
    21:00 +13°C° 0 mm 2 mps 768 mmHg 77%
    22:00 +12°C° 0 mm 2 mps 768 mmHg 79%
    23:00 +12°C° 0 mm 2 mps 768 mmHg 81%

    27 September, Thursday

    Time Temperature Precipitation Wind Pressure Humidity
    00:00 +10°C° 0 mm 2 mps 767 mmHg 83%
    01:00 +10°C° 0 mm 2 mps 767 mmHg 83%
    02:00 +10°C° 0 mm 3 mps 767 mmHg 83%
    03:00 +10°C° 0 mm 3 mps 767 mmHg 83%
    04:00 +10°C° 0 mm 3 mps 766 mmHg 84%
    05:00 +10°C° 0 mm 3 mps 766 mmHg 84%
    06:00 +10°C° 0 mm 3 mps 766 mmHg 84%
    07:00 +12°C° 0 mm 3 mps 766 mmHg 80%
    08:00 +14°C° 0 mm 3 mps 766 mmHg 75%
    09:00 +16°C° 0 mm 3 mps 766 mmHg 71%
    10:00 +18°C° 0 mm 4 mps 766 mmHg 68%
    11:00 +20°C° 0 mm 4 mps 766 mmHg 66%
    12:00 +22°C° 0 mm 5 mps 766 mmHg 63%
    13:00 +21°C° 0 mm 5 mps 766 mmHg 64%
    14:00 +21°C° 0 mm 5 mps 766 mmHg 66%
    15:00 +21°C° 0 mm 5 mps 766 mmHg 67%
    16:00 +19°C° 0 mm 5 mps 766 mmHg 69%
    17:00 +18°C° 0 mm 4 mps 766 mmHg 70%
    18:00 +15°C° 0 mm 4 mps 767 mmHg 72%
    19:00 +14°C° 0 mm 4 mps 767 mmHg 72%
    20:00 +14°C° 0 mm 4 mps 768 mmHg 73%
    21:00 +13°C° 0 mm 4 mps 768 mmHg 74%
    22:00 +12°C° 0 mm 3 mps 768 mmHg 77%
    23:00 +11°C° 0 mm 3 mps 768 mmHg 79%
    Show more